Starlink 5311

operational
NORAD ID: 55288 Int'l Des: 2023-010 Owner: SPXS Country: US Constellation: starlink
LEOCIRCULAR

Starlink 5311について

説明を読み込み中...

リアルタイム位置

3D地球を読み込み中...

次回通過

高度履歴

Altitude vs Time

uPlot chart will show altitude changes over time

軌道要素

1 55288U 23010V 25351.06819881 -.00156321 00000-0 -13133-1 0 9993
2 55288 69.9976 232.7562 0005397 189.7553 170.3503 14.99057088160899
Epoch: Dec 17, 2025 • Age: 20 hours

現在のステータス

高度 582.9 km
速度 7.58 km/s
衛星直下点 68.60°N, 106.88°W
打ち上げ日 Jan 19, 2023
運用期間 2.9 years
タイプ internet

技術仕様

分類 Payload
質量 305.00 kg
乾燥質量 290.00 kg
総質量 305.00 kg
長さ 0.20 m
直径 2.80 m
スパン 9.00 m
形状 Box + pan
製造者 SPXS
バスタイプ Starlink
フェーズステータス In Orbit
所有者/国 SPXS/US

大規模コンステレーション

Loading constellations...